Time,TemperatureF,DewpointF,PressureIn,WindDirection,WindDirectionDegrees,WindSpeedMPH,WindSpeedGustMPH,Humidity,HourlyPrecipIn,Conditions,Clouds,dailyrainin,SoftwareType,DateUTC
2013-04-27 00:02:00,69.0,-99.9,-100.00,SSW,202,2.0,3.0,-999,-99.99,,,-99.99,,2013-04-27 07:02:00,
2013-04-27 00:22:00,63.0,-99.9,-100.00,East,84,1.0,2.0,-999,-99.99,,,-99.99,,2013-04-27 07:22:00,
2013-04-27 00:32:00,64.0,-99.9,-100.00,North,0,0.0,1.0,-999,-99.99,,,-99.99,,2013-04-27 07:32:00,
2013-04-27 00:42:00,64.0,-99.9,-100.00,North,0,0.0,1.0,-999,-99.99,,,-99.99,,2013-04-27 07:42:00,
2013-04-27 00:52:00,62.0,-99.9,-100.00,SSE,165,0.0,2.0,-999,-99.99,,,-99.99,,2013-04-27 07:52:00,
2013-04-27 01:02:00,62.0,-99.9,-100.00,SSE,165,0.0,2.0,-999,-99.99,,,-99.99,,2013-04-27 08:02:00,
2013-04-27 01:33:00,58.0,-99.9,-100.00,SSW,198,2.0,3.0,-999,-99.99,,,-99.99,,2013-04-27 08:33:00,
2013-04-27 01:42:00,58.0,-99.9,-100.00,SSW,198,2.0,3.0,-999,-99.99,,,-99.99,,2013-04-27 08:42:00,
2013-04-27 01:52:00,58.0,-99.9,-100.00,SSW,198,2.0,3.0,-999,-99.99,,,-99.99,,2013-04-27 08:52:00,
2013-04-27 02:00:00,57.0,-99.9,-100.00,SSW,200,4.0,4.0,-999,-99.99,,,-99.99,,2013-04-27 09:00:00,
2013-04-27 02:22:00,58.0,-99.9,-100.00,SSW,207,2.0,3.0,-999,-99.99,,,-99.99,,2013-04-27 09:22:00,
2013-04-27 02:33:00,58.0,-99.9,-100.00,WSW,238,3.0,4.0,-999,-99.99,,,-99.99,,2013-04-27 09:33:00,
2013-04-27 02:43:00,58.0,-99.9,-100.00,WSW,238,3.0,4.0,-999,-99.99,,,-99.99,,2013-04-27 09:43:00,
2013-04-27 02:53:00,57.0,-99.9,-100.00,SSW,200,4.0,4.0,-999,-99.99,,,-99.99,,2013-04-27 09:53:00,
2013-04-27 03:33:00,54.0,-99.9,-100.00,SW,220,3.0,4.0,-999,-99.99,,,-99.99,,2013-04-27 10:33:00,
2013-04-27 03:42:00,54.0,-99.9,-100.00,SW,220,3.0,4.0,-999,-99.99,,,-99.99,,2013-04-27 10:42:00,
2013-04-27 03:53:00,55.0,-99.9,-100.00,WSW,238,3.0,7.0,-999,-99.99,,,-99.99,,2013-04-27 10:53:00,
2013-04-27 04:03:00,55.0,-99.9,-100.00,SW,226,2.0,6.0,-999,-99.99,,,-99.99,,2013-04-27 11:03:00,
2013-04-27 04:12:00,55.0,-99.9,-100.00,SW,226,2.0,6.0,-999,-99.99,,,-99.99,,2013-04-27 11:12:00,
2013-04-27 04:22:00,55.0,-99.9,-100.00,SW,226,2.0,6.0,-999,-99.99,,,-99.99,,2013-04-27 11:22:00,
2013-04-27 04:32:00,54.0,-99.9,-100.00,WSW,244,3.0,6.0,-999,-99.99,,,-99.99,,2013-04-27 11:32:00,
2013-04-27 04:42:00,54.0,-99.9,-100.00,WSW,244,3.0,6.0,-999,-99.99,,,-99.99,,2013-04-27 11:42:00,
2013-04-27 04:52:00,54.0,-99.9,-100.00,WSW,244,3.0,6.0,-999,-99.99,,,-99.99,,2013-04-27 11:52:00,
2013-04-27 05:32:00,51.0,-99.9,-100.00,WNW,298,5.0,5.0,-999,-99.99,,,-99.99,,2013-04-27 12:32:00,
2013-04-27 05:42:00,51.0,-99.9,-100.00,WNW,298,5.0,5.0,-999,-99.99,,,-99.99,,2013-04-27 12:42:00,
2013-04-27 05:52:00,51.0,-99.9,-100.00,WNW,298,5.0,5.0,-999,-99.99,,,-99.99,,2013-04-27 12:52:00,
2013-04-27 06:02:00,54.0,-99.9,-100.00,NW,308,5.0,5.0,-999,-99.99,,,-99.99,,2013-04-27 13:02:00,
2013-04-27 06:10:00,51.0,-99.9,-100.00,WNW,291,2.0,4.0,-999,-99.99,,,-99.99,,2013-04-27 13:10:00,
2013-04-27 06:12:00,54.0,-99.9,-100.00,NW,308,5.0,5.0,-999,-99.99,,,-99.99,,2013-04-27 13:12:00,
2013-04-27 06:22:00,54.0,-99.9,-100.00,NW,308,5.0,5.0,-999,-99.99,,,-99.99,,2013-04-27 13:22:00,
2013-04-27 06:32:00,52.0,-99.9,-100.00,WSW,246,3.0,7.0,-999,-99.99,,,-99.99,,2013-04-27 13:32:00,
2013-04-27 06:42:00,52.0,-99.9,-100.00,WSW,246,3.0,7.0,-999,-99.99,,,-99.99,,2013-04-27 13:42:00,
2013-04-27 06:52:00,51.0,-99.9,-100.00,WNW,291,2.0,4.0,-999,-99.99,,,-99.99,,2013-04-27 13:52:00,
2013-04-27 07:02:00,51.0,-99.9,-100.00,WNW,291,2.0,4.0,-999,-99.99,,,-99.99,,2013-04-27 14:02:00,
2013-04-27 07:32:00,51.0,-99.9,-100.00,SSW,211,2.0,4.0,-999,-99.99,,,-99.99,,2013-04-27 14:32:00,
2013-04-27 07:42:00,51.0,-99.9,-100.00,SSW,211,2.0,4.0,-999,-99.99,,,-99.99,,2013-04-27 14:42:00,
2013-04-27 07:52:00,51.0,-99.9,-100.00,SSW,211,2.0,4.0,-999,-99.99,,,-99.99,,2013-04-27 14:52:00,
2013-04-27 08:33:00,56.0,-99.9,-100.00,WSW,238,3.0,6.0,-999,-99.99,,,-99.99,,2013-04-27 15:33:00,
2013-04-27 08:43:00,56.0,-99.9,-100.00,WSW,238,3.0,6.0,-999,-99.99,,,-99.99,,2013-04-27 15:43:00,
2013-04-27 08:53:00,56.0,-99.9,-100.00,WSW,238,3.0,6.0,-999,-99.99,,,-99.99,,2013-04-27 15:53:00,
2013-04-27 09:23:00,58.0,-99.9,-100.00,SW,236,5.0,6.0,-999,-99.99,,,-99.99,,2013-04-27 16:23:00,
2013-04-27 09:33:00,60.0,-99.9,-100.00,SSE,161,0.0,4.0,-999,-99.99,,,-99.99,,2013-04-27 16:33:00,
2013-04-27 09:42:00,60.0,-99.9,-100.00,SSE,161,0.0,4.0,-999,-99.99,,,-99.99,,2013-04-27 16:42:00,
2013-04-27 09:53:00,60.0,-99.9,-100.00,SSE,161,0.0,4.0,-999,-99.99,,,-99.99,,2013-04-27 16:53:00,
2013-04-27 10:32:00,67.0,-99.9,-100.00,SW,236,19.0,19.0,-999,-99.99,,,-99.99,,2013-04-27 17:32:00,
2013-04-27 10:42:00,67.0,-99.9,-100.00,SW,236,19.0,19.0,-999,-99.99,,,-99.99,,2013-04-27 17:42:00,
2013-04-27 10:53:00,67.0,-99.9,-100.00,SW,236,19.0,19.0,-999,-99.99,,,-99.99,,2013-04-27 17:53:00,
2013-04-27 11:02:00,65.0,-99.9,-100.00,SW,233,12.0,21.0,-999,-99.99,,,-99.99,,2013-04-27 18:02:00,
2013-04-27 11:12:00,65.0,-99.9,-100.00,SW,233,12.0,21.0,-999,-99.99,,,-99.99,,2013-04-27 18:12:00,
2013-04-27 11:22:00,66.0,-99.9,-100.00,WSW,256,8.0,17.0,-999,-99.99,,,-99.99,,2013-04-27 18:22:00,
2013-04-27 11:32:00,67.0,-99.9,-100.00,SW,236,10.0,15.0,-999,-99.99,,,-99.99,,2013-04-27 18:32:00,
2013-04-27 11:42:00,67.0,-99.9,-100.00,SW,236,10.0,15.0,-999,-99.99,,,-99.99,,2013-04-27 18:42:00,
2013-04-27 11:52:00,67.0,-99.9,-100.00,SW,236,10.0,15.0,-999,-99.99,,,-99.99,,2013-04-27 18:52:00,
2013-04-27 12:32:00,71.0,-99.9,-100.00,WSW,251,10.0,21.0,-999,-99.99,,,-99.99,,2013-04-27 19:32:00,
2013-04-27 12:42:00,71.0,-99.9,-100.00,WSW,251,10.0,21.0,-999,-99.99,,,-99.99,,2013-04-27 19:42:00,
2013-04-27 12:53:00,71.0,-99.9,-100.00,WSW,251,10.0,21.0,-999,-99.99,,,-99.99,,2013-04-27 19:53:00,
2013-04-27 13:00:00,72.0,-99.9,-100.00,West,281,12.0,14.0,-999,-99.99,,,-99.99,,2013-04-27 20:00:00,
2013-04-27 13:32:00,75.0,-99.9,-100.00,West,262,8.0,24.0,-999,-99.99,,,-99.99,,2013-04-27 20:32:00,
2013-04-27 13:42:00,75.0,-99.9,-100.00,West,262,8.0,24.0,-999,-99.99,,,-99.99,,2013-04-27 20:42:00,
2013-04-27 13:52:00,72.0,-99.9,-100.00,West,281,12.0,14.0,-999,-99.99,,,-99.99,,2013-04-27 20:52:00,
2013-04-27 14:00:00,73.0,-99.9,-100.00,West,281,8.0,16.0,-999,-99.99,,,-99.99,,2013-04-27 21:00:00,
2013-04-27 14:33:00,72.0,-99.9,-100.00,WSW,252,14.0,14.0,-999,-99.99,,,-99.99,,2013-04-27 21:33:00,
2013-04-27 14:43:00,72.0,-99.9,-100.00,WSW,252,14.0,14.0,-999,-99.99,,,-99.99,,2013-04-27 21:43:00,
2013-04-27 14:53:00,73.0,-99.9,-100.00,West,281,8.0,16.0,-999,-99.99,,,-99.99,,2013-04-27 21:53:00,
2013-04-27 15:32:00,73.0,-99.9,-100.00,West,261,14.0,17.0,-999,-99.99,,,-99.99,,2013-04-27 22:32:00,
2013-04-27 15:42:00,73.0,-99.9,-100.00,West,261,14.0,17.0,-999,-99.99,,,-99.99,,2013-04-27 22:42:00,
2013-04-27 15:53:00,73.0,-99.9,-100.00,West,261,14.0,17.0,-999,-99.99,,,-99.99,,2013-04-27 22:53:00,
2013-04-27 16:32:00,72.0,-99.9,-100.00,WNW,283,11.0,17.0,-999,-99.99,,,-99.99,,2013-04-27 23:32:00,
2013-04-27 16:43:00,72.0,-99.9,-100.00,WNW,283,11.0,17.0,-999,-99.99,,,-99.99,,2013-04-27 23:43:00,
2013-04-27 16:53:00,72.0,-99.9,-100.00,WNW,283,11.0,17.0,-999,-99.99,,,-99.99,,2013-04-27 23:53:00,
2013-04-27 18:10:00,67.0,-99.9,-100.00,West,278,12.0,13.0,-999,-99.99,,,-99.99,,2013-04-28 01:10:00,
2013-04-27 18:32:00,69.0,-99.9,-100.00,West,263,9.0,15.0,-999,-99.99,,,-99.99,,2013-04-28 01:32:00,
2013-04-27 18:42:00,69.0,-99.9,-100.00,West,263,9.0,15.0,-999,-99.99,,,-99.99,,2013-04-28 01:42:00,
2013-04-27 18:52:00,67.0,-99.9,-100.00,West,278,12.0,13.0,-999,-99.99,,,-99.99,,2013-04-28 01:52:00,
2013-04-27 19:02:00,67.0,-99.9,-100.00,West,278,12.0,13.0,-999,-99.99,,,-99.99,,2013-04-28 02:02:00,
2013-04-27 19:20:00,65.0,-99.9,-100.00,West,260,5.0,13.0,-999,-99.99,,,-99.99,,2013-04-28 02:20:00,
2013-04-27 19:22:00,66.0,-99.9,-100.00,West,261,5.0,12.0,-999,-99.99,,,-99.99,,2013-04-28 02:22:00,
2013-04-27 19:32:00,66.0,-99.9,-100.00,WNW,298,4.0,7.0,-999,-99.99,,,-99.99,,2013-04-28 02:32:00,
2013-04-27 19:42:00,66.0,-99.9,-100.00,WNW,298,4.0,7.0,-999,-99.99,,,-99.99,,2013-04-28 02:42:00,
2013-04-27 19:52:00,68.0,-99.9,-100.00,WNW,286,8.0,9.0,-999,-99.99,,,-99.99,,2013-04-28 02:52:00,
2013-04-27 20:02:00,65.0,-99.9,-100.00,West,260,5.0,13.0,-999,-99.99,,,-99.99,,2013-04-28 03:02:00,
2013-04-27 20:12:00,65.0,-99.9,-100.00,West,260,5.0,13.0,-999,-99.99,,,-99.99,,2013-04-28 03:12:00,
2013-04-27 20:33:00,63.0,-99.9,-100.00,WNW,294,9.0,9.0,-999,-99.99,,,-99.99,,2013-04-28 03:33:00,
2013-04-27 20:43:00,63.0,-99.9,-100.00,WNW,294,9.0,9.0,-999,-99.99,,,-99.99,,2013-04-28 03:43:00,
2013-04-27 20:53:00,63.0,-99.9,-100.00,WNW,294,9.0,9.0,-999,-99.99,,,-99.99,,2013-04-28 03:53:00,
2013-04-27 21:33:00,62.0,-99.9,-100.00,WNW,283,10.0,20.0,-999,-99.99,,,-99.99,,2013-04-28 04:33:00,
2013-04-27 21:43:00,62.0,-99.9,-100.00,WNW,283,10.0,20.0,-999,-99.99,,,-99.99,,2013-04-28 04:43:00,
2013-04-27 21:53:00,62.0,-99.9,-100.00,West,276,6.0,12.0,-999,-99.99,,,-99.99,,2013-04-28 04:53:00,
2013-04-27 22:02:00,62.0,-99.9,-100.00,West,276,6.0,12.0,-999,-99.99,,,-99.99,,2013-04-28 05:02:00,
2013-04-27 22:22:00,63.0,-99.9,-100.00,West,280,8.0,11.0,-999,-99.99,,,-99.99,,2013-04-28 05:22:00,
2013-04-27 22:33:00,59.0,-99.9,-100.00,West,270,5.0,8.0,-999,-99.99,,,-99.99,,2013-04-28 05:33:00,
2013-04-27 22:42:00,59.0,-99.9,-100.00,West,270,5.0,8.0,-999,-99.99,,,-99.99,,2013-04-28 05:42:00,
2013-04-27 22:52:00,60.0,-99.9,-100.00,West,264,8.0,8.0,-999,-99.99,,,-99.99,,2013-04-28 05:52:00,
2013-04-27 23:02:00,59.0,-99.9,-100.00,SW,236,4.0,7.0,-999,-99.99,,,-99.99,,2013-04-28 06:02:00,
2013-04-27 23:13:00,59.0,-99.9,-100.00,SW,236,4.0,7.0,-999,-99.99,,,-99.99,,2013-04-28 06:13:00,
2013-04-27 23:32:00,60.0,-99.9,-100.00,West,279,13.0,15.0,-999,-99.99,,,-99.99,,2013-04-28 06:32:00,
2013-04-27 23:42:00,60.0,-99.9,-100.00,West,279,13.0,15.0,-999,-99.99,,,-99.99,,2013-04-28 06:42:00,
2013-04-27 23:52:00,60.0,-99.9,-100.00,West,279,13.0,15.0,-999,-99.99,,,-99.99,,2013-04-28 06:52:00,